カタログに戻る

RASSVET-3 20

運用中PO
NORAD 100086·PAYLOAD·🇷🇺 Russia

打ち上げ Jul 19, 2026 から Plesetsk Cosmodrome

Loading…

次のパス (今後24時間)

TLE

最新Source: Space-Track

元期: Sep 14, 2026, 13:35 UTC

1 A0086U 26165D   26257.56599932 -.00316815  00000-0 -33726-2 0  9993
2 A0086  82.3008 167.6688 0010132  45.4666 314.7419 15.64863479  8951

AllMySatでRASSVET-3 20をリアルタイム追跡

Download on the App Store